[[{"header":{"parameterUnit":"m.s-1","parameterCategory":1,"la1":30.2991,"la2":30.254,"lo1":-89.0895,"lo2":-89.0444,"dy":0.0017,"dx":0.0017,"nx":28,"ny":28,"refTime":"2024-06-24T03:00:00:Z","depth":0,"parameterNumber":2,"parameterNumberName":"U-component_of_WINDS"},"data":[0,0,0,0,0,0,0,0,0,0,0,0,0,0,0,0,0,0,0,0,0,0,0,0,0,0,0,0,0,0,0,0,0,0,0,0,0,0,0,0,0,0,0,0,0,0,0,0,0,0,0,0,0,0,0,0,0,0,1.5765,1.5766,0,1.5932,1.5934,1.5936,1.5911,1.5908,1.5906,1.5903,1.6084,1.6091,1.6099,0,0,0,0,0,0,0,0,0,0,0,0,0,1.5432,1.5438,1.5764,1.5767,1.5769,1.5932,1.5934,1.5937,1.5912,1.5908,1.5905,1.5902,1.6081,1.609,1.6099,0,0,0,0,0,0,0,0,0,0,0,0,0,1.5586,1.544,1.5764,1.5776,1.5778,1.5931,1.5934,1.5937,1.5913,1.5908,1.5904,1.59,1.6078,1.6089,1.61,1.6255,0,0,1.6135,1.614,0,0,0,0,0,0,0,0,1.5577,1.5598,1.5772,1.5775,1.5778,1.5896,1.5883,1.6044,1.5914,1.5862,1.5903,1.5898,1.6026,1.6041,1.6082,1.6264,1.6272,1.6136,1.6142,1.6147,1.615,0,0,0,0,0,0,0,1.5566,1.5591,1.5831,1.5775,1.5779,1.5776,1.5793,1.5914,1.5966,1.5866,1.5865,1.5884,1.6027,1.6071,1.6086,1.6274,1.6135,1.6145,1.6152,1.6157,1.6593,1.6598,0,0,0,0,0,0,1.5551,1.5582,1.5826,1.5836,1.5665,1.5785,1.5804,1.5863,1.5965,1.5976,1.5888,1.5883,1.6054,1.6073,1.6092,1.6281,1.6147,1.6158,1.6164,1.6588,1.6594,1.6599,0,0,0,0,0,0,1.5544,1.5573,1.5819,1.5709,1.574,1.5795,1.5862,1.5869,1.5913,1.5981,1.5991,1.5923,1.6052,1.6077,1.6215,1.6287,1.6163,1.6173,1.6582,1.659,1.6597,1.6659,0,0,0,0,0,0,1.5535,1.5571,1.5628,1.571,1.5746,1.5936,1.5866,1.5875,1.5931,1.5926,1.6017,1.6028,1.605,1.6198,1.6226,1.63,1.6182,1.6576,1.6586,1.6594,1.6651,1.6668,1.6682,0,0,0,0,0,1.5523,1.5641,1.5631,1.5661,1.5818,1.594,1.5961,1.5981,1.5937,1.5997,1.604,1.6025,1.6274,1.6212,1.6243,1.6322,1.6572,1.6583,1.6594,1.6644,1.6664,1.6682,0,0,0,0,0,0,1.5569,1.5652,1.5642,1.5789,1.5857,1.5936,1.6011,1.6002,1.6087,1.6079,1.6104,1.6124,1.6264,1.6307,1.6237,1.6478,1.6417,1.6435,1.6445,1.6465,1.648,1.6468,1.6191,0,0,0,0,0,1.5596,1.5685,1.5754,1.5877,1.5912,1.5956,1.601,1.6019,1.6092,1.6122,1.6176,1.625,1.6345,1.6407,1.6498,1.6657,1.6677,1.6726,1.6742,1.6754,1.677,1.6858,1.6881,1.6635,1.6635,1.6635,0,0,1.5653,1.5709,1.5765,1.5888,1.5942,1.6037,1.598,1.6083,1.6154,1.6139,1.6271,1.6314,1.6398,1.6547,1.6615,1.6587,1.6842,1.6768,1.6778,1.6787,1.6872,1.6895,1.6916,1.6643,1.6641,1.664,0,0,1.5806,1.5857,1.5965,1.602,1.6102,1.613,1.6156,1.6236,1.6262,1.6395,1.6386,1.6472,1.6635,1.6696,1.6748,1.6924,1.6914,1.6953,1.7035,1.7121,1.714,1.7157,1.7221,1.7244,1.6968,1.6968,1.6968,0,1.5868,1.6007,1.6023,1.6127,1.6182,1.6169,1.6281,1.6335,1.6443,1.6483,1.6449,1.6653,1.6709,1.6872,1.6915,1.6957,1.699,1.6943,1.7135,1.7153,1.717,1.7231,1.7255,1.6973,1.6972,1.6972,1.6971,0,1.608,1.6177,1.6256,1.6358,1.6422,1.653,1.6564,1.6628,1.6632,1.6665,1.6802,1.6868,1.6973,1.7012,1.7019,1.7177,1.7157,1.7129,1.7069,1.7197,1.7255,1.7279,1.6979,1.6977,1.6976,1.6975,0,0,1.6268,1.6376,1.6405,1.6451,1.654,1.6617,1.6725,1.6824,1.6879,1.6954,1.7047,1.7185,1.7159,1.7218,1.7231,1.7306,1.7443,1.7269,1.7272,1.73,1.7623,1.7644,1.7671,1.7436,1.744,1.7444,1.7616,0,1.643,1.6617,1.6635,1.6804,1.6895,1.6884,1.6978,1.7044,1.7078,1.7162,1.7201,1.7298,1.7256,1.7292,1.7366,1.741,1.7508,1.7398,1.7525,1.7529,1.7504,1.7701,1.7724,1.7884,1.7639,1.7643,1.7646,0,1.6644,1.6723,1.69,1.6976,1.7015,1.7099,1.7192,1.7272,1.7348,1.7367,1.7433,1.7436,1.755,1.7484,1.7643,1.7567,1.762,1.765,1.7657,1.7671,1.7596,1.7721,1.7935,1.7959,1.7682,1.7679,1.7676,0,1.6765,1.6915,1.7041,1.7081,1.7173,1.7232,1.7274,1.7345,1.7404,1.7486,1.7524,1.762,1.7673,1.7748,1.7777,1.7726,1.7935,1.7871,1.7956,1.7956,1.8002,1.7999,1.8228,1.8034,1.8034,1.8033,1.8033,0,1.6945,1.7054,1.7096,1.7173,1.7296,1.7316,1.7438,1.7478,1.7541,1.7628,1.7625,1.7707,1.7741,1.783,1.7854,1.7982,1.8006,1.8027,1.8032,1.8028,1.8025,1.8063,1.8053,1.804,1.8038,1.8037,1.8036,0,1.71,1.7132,1.7268,1.7344,1.7365,1.7453,1.7518,1.7595,1.7626,1.7737,1.7764,1.7815,1.7919,1.7956,1.8083,1.8099,1.8248,1.8244,1.8222,1.8223,1.8307,1.8299,1.857,1.8607,1.8388,1.839,1.8391,0,1.7213,1.7296,1.738,1.7436,1.7479,1.7571,1.763,1.7654,1.7716,1.7809,1.7875,1.7977,1.806,1.8227,1.8278,1.8375,1.8374,1.8462,1.8389,1.8381,1.8376,1.8371,1.838,1.8476,1.8478,1.848,1.8482,0,1.7411,1.7422,1.7506,1.7596,1.7666,1.7739,1.7809,1.7857,1.7892,1.7962,1.8067,1.8131,1.8259,1.8362,1.8461,1.8507,1.8502,1.8504,1.8529,1.8526,1.851,1.852,1.826,1.8498,1.8496,1.8495,1.8494,1.8494,1.7549,1.7623,1.7693,1.7787,1.7842,1.7908,1.7983,1.8023,1.811,1.8214,1.8224,1.8337,1.8412,1.8545,1.8595,1.8686,1.8662,1.8698,1.8707,1.8716,1.8722,1.8494,1.8704,1.8704,1.8703,1.8703,1.8703,0,1.7747,1.7791,1.7877,1.7975,1.8049,1.8034,1.8111,1.8176,1.8274,1.8343,1.8424,1.8545,1.8645,1.8702,1.8802,1.8864,1.8864,1.889,1.8886,1.8897,1.8738,1.8706,1.8888,1.8888,1.8888,1.8888,1.8888,1.8888,1.7859,1.7983,1.8003,1.8156,1.82,1.8308,1.8354,1.8416,1.8471,1.8605,1.8686,1.8722,1.8787,1.8892,1.8983,1.8998,1.9036,1.9064,1.9077,1.8927,1.8908,1.889,1.8861,1.9072,1.9072,1.9228,1.923,1.9231]},{"header":{"parameterUnit":"m.s-1","parameterCategory":1,"la1":30.2991,"la2":30.254,"lo1":-89.0895,"lo2":-89.0444,"dy":0.0017,"dx":0.0017,"nx":28,"ny":28,"refTime":"2024-06-24T03:00:00:Z","depth":0,"parameterNumber":3,"parameterNumberName":"V-component_of_WINDS"},"data":[0,0,0,0,0,0,0,0,0,0,0,0,0,0,0,0,0,0,0,0,0,0,0,0,0,0,0,0,0,0,0,0,0,0,0,0,0,0,0,0,0,0,0,0,0,0,0,0,0,0,0,0,0,0,0,0,0,0,2.2244,2.2244,0,2.2322,2.2322,2.2323,2.2316,2.2315,2.2314,2.2313,2.2389,2.2392,2.2395,0,0,0,0,0,0,0,0,0,0,0,0,0,2.2082,2.2085,2.2243,2.2244,2.2245,2.2321,2.2322,2.2324,2.2317,2.2315,2.2314,2.2312,2.2388,2.2391,2.2395,0,0,0,0,0,0,0,0,0,0,0,0,0,2.2155,2.2086,2.2243,2.2251,2.2253,2.2321,2.2323,2.2324,2.2317,2.2315,2.2313,2.2312,2.2387,2.2391,2.2396,2.246,0,0,2.241,2.2412,0,0,0,0,0,0,0,0,2.2151,2.2161,2.2249,2.2251,2.2253,2.2308,2.2293,2.2369,2.2317,2.2292,2.2313,2.2311,2.2363,2.2369,2.2388,2.2464,2.2467,2.241,2.2413,2.2415,2.2417,0,0,0,0,0,0,0,2.2146,2.2158,2.2274,2.225,2.2252,2.2249,2.2257,2.2308,2.2336,2.2294,2.2294,2.2304,2.2363,2.2383,2.239,2.2468,2.241,2.2414,2.2417,2.2419,2.2596,2.2598,0,0,0,0,0,0,2.214,2.2154,2.2272,2.2277,2.2197,2.2253,2.2263,2.2292,2.2336,2.2341,2.2305,2.2303,2.2376,2.2384,2.2392,2.2467,2.2415,2.242,2.2422,2.2594,2.2596,2.2598,0,0,0,0,0,0,2.2137,2.2151,2.2269,2.2215,2.223,2.2258,2.229,2.2294,2.2314,2.2344,2.2349,2.232,2.2375,2.2386,2.2443,2.247,2.2422,2.2426,2.2592,2.2595,2.2597,2.262,0,0,0,0,0,0,2.2132,2.2149,2.2176,2.2216,2.2233,2.232,2.2292,2.2297,2.2322,2.2321,2.236,2.2364,2.2375,2.2436,2.2447,2.2475,2.243,2.2589,2.2593,2.2596,2.2617,2.2623,2.2629,0,0,0,0,0,2.2126,2.2179,2.2177,2.2192,2.2267,2.2321,2.2331,2.2342,2.2325,2.235,2.2369,2.2363,2.2466,2.2442,2.2455,2.2485,2.2588,2.2592,2.2596,2.2614,2.2622,2.2628,0,0,0,0,0,0,2.2141,2.2185,2.2183,2.2251,2.2282,2.232,2.2353,2.2351,2.2387,2.2384,2.2395,2.2404,2.2461,2.2479,2.2451,2.2547,2.2524,2.2531,2.2533,2.2541,2.2546,2.254,2.2434,0,0,0,0,0,2.2153,2.2195,2.223,2.2286,2.2302,2.2325,2.2349,2.2355,2.2388,2.2401,2.2424,2.2454,2.2493,2.2518,2.2556,2.262,2.2626,2.2647,2.2652,2.2657,2.2662,2.2693,2.2702,2.2612,2.2612,2.2612,0,0,2.2176,2.2205,2.2231,2.229,2.2315,2.2356,2.2336,2.2381,2.2411,2.2407,2.2462,2.248,2.2514,2.2574,2.2601,2.2591,2.2688,2.2663,2.2666,2.2669,2.2699,2.2707,2.2714,2.2615,2.2615,2.2614,0,0,2.2239,2.2267,2.2315,2.2341,2.2379,2.2393,2.2404,2.2442,2.2454,2.2509,2.2506,2.254,2.2608,2.2631,2.2652,2.2721,2.2716,2.2733,2.2763,2.2793,2.28,2.2806,2.2828,2.2835,2.2739,2.2739,2.2739,0,2.2263,2.2327,2.234,2.2385,2.2409,2.2408,2.2455,2.2478,2.2527,2.2542,2.253,2.2612,2.2636,2.2699,2.2715,2.2734,2.2744,2.2728,2.2799,2.2805,2.2811,2.2831,2.2839,2.274,2.274,2.274,2.274,0,2.2352,2.2396,2.243,2.2476,2.2505,2.2551,2.2568,2.2595,2.2598,2.2612,2.2666,2.2695,2.2736,2.2752,2.2756,2.2815,2.2806,2.2796,2.2773,2.2821,2.284,2.2848,2.2743,2.2742,2.2742,2.2741,0,0,2.2427,2.2479,2.2491,2.251,2.2551,2.2584,2.2629,2.267,2.2691,2.2724,2.2758,2.2814,2.2804,2.2828,2.2834,2.2861,2.2909,2.2847,2.2848,2.2855,2.2971,2.2976,2.2986,2.2907,2.2908,2.291,2.2967,0,2.2492,2.2571,2.2583,2.2652,2.269,2.2689,2.2727,2.2754,2.2769,2.2802,2.2817,2.2855,2.2841,2.2854,2.2881,2.2898,2.2932,2.2894,2.2936,2.2937,2.2925,2.2996,2.3003,2.3056,2.2975,2.2977,2.2977,0,2.2578,2.2613,2.2686,2.2718,2.2735,2.2769,2.2805,2.2838,2.2868,2.2877,2.2902,2.2904,2.2946,2.2923,2.298,2.2953,2.2971,2.2981,2.2984,2.2986,2.2959,2.2997,2.3074,2.308,2.299,2.2989,2.2988,0,2.2621,2.2686,2.2737,2.2754,2.2795,2.2818,2.2835,2.2864,2.2887,2.2919,2.2933,2.2969,2.2988,2.3015,2.3025,2.3008,2.308,2.3058,2.3085,2.3085,2.3099,2.3098,2.3176,2.3115,2.3115,2.3115,2.3115,0,2.269,2.2734,2.2756,2.2787,2.2835,2.2847,2.2893,2.291,2.2935,2.2967,2.2968,2.2998,2.3012,2.3043,2.3052,2.3095,2.3104,2.311,2.3111,2.3108,2.3107,2.3118,2.3114,2.3117,2.3117,2.3116,2.3116,0,2.2745,2.2763,2.2817,2.2851,2.286,2.2893,2.2921,2.2949,2.2963,2.3003,2.3014,2.3034,2.3071,2.3084,2.3129,2.3134,2.3184,2.3184,2.3174,2.3173,2.3198,2.3195,2.3285,2.3296,2.323,2.3231,2.3231,0,2.2787,2.2821,2.2857,2.2879,2.2897,2.2933,2.2956,2.2969,2.2992,2.3027,2.3051,2.3087,2.3117,2.3175,2.3192,2.3225,2.3224,2.3253,2.3229,2.3224,2.322,2.3217,2.3219,2.3257,2.3258,2.3258,2.3259,0,2.2858,2.2864,2.2898,2.2934,2.2962,2.2991,2.3018,2.3036,2.3052,2.3078,2.3115,2.3138,2.3183,2.3218,2.3251,2.3267,2.3264,2.3266,2.3274,2.327,2.3262,2.3263,2.3183,2.3264,2.3263,2.3263,2.3263,2.3262,2.2906,2.2934,2.2963,2.3,2.3022,2.3047,2.3075,2.3092,2.3123,2.3161,2.3166,2.3205,2.3232,2.3276,2.3294,2.3323,2.3314,2.3326,2.3329,2.3331,2.3331,2.3259,2.3329,2.3329,2.3329,2.3329,2.3329,0,2.2974,2.2993,2.3026,2.3065,2.3092,2.3089,2.3119,2.3142,2.3177,2.3202,2.3231,2.3272,2.3305,2.3325,2.3358,2.3377,2.3376,2.3385,2.3382,2.3385,2.3338,2.3327,2.3384,2.3384,2.3384,2.3384,2.3384,2.3384,2.3013,2.3059,2.3068,2.3124,2.3142,2.3181,2.3198,2.322,2.324,2.3286,2.3314,2.3327,2.3349,2.3383,2.3412,2.3417,2.3427,2.3436,2.3439,2.3395,2.3389,2.3383,2.3372,2.3439,2.3439,2.3484,2.3484,2.3485]}]]